ENVD

Details ICAO ENVD (VDS)
Name Vadso
Region Norway
Timezone Europe/Oslo (UTC+2.0)
Plans Departing 10
Arriving 7
Stats Elevation 125 ft / 38 m (AMSL)
Location 70.065224° 29.844034°
Runways 1
Magnetic Variation 15.179° E
Sunrise Unknown / Unknown
Sunset Unknown / Unknown
Advertisement - Login to hide

Runways

ID Width Length Bearing (true) Bearing (mag) Surface Threshold Offset Overrun Length
09 98 ft / 30 m 2,889 ft / 880 m 86.99° 71.81° Asphalt 0 ft / 0 m 0 ft / 0 m
27 98 ft / 30 m 2,889 ft / 880 m 267.01° 251.83° Asphalt 0 ft / 0 m 0 ft / 0 m

Map

Weather


0- 5 10 15 20 25 30 35+ Temperature / ° C

Clouds and Precipitation
Forecast for 2018-05-24 12:00 UTC. Updated 3 hours ago

Ground ~20,000 ft ~40,000 ft Winds

METAR

ENVD 241350Z 26008KT 9999 VCSH SCT047 BKN085 10/M02 Q1022

TAF

Not found
Warning: Do not use this data for real-world aviation or navigation. No guarantee of current accuracy is given.